Regional Weather Roundup
Issued by NWS Sioux Falls, SD

Home | Current Version | Previous Version | Text Only | Print | Product List | Glossary On
Versions: 1 2 3 4 5 6 7 8 9 10 11 12 13 14 15 16 17 18 19 20 21 22 23 24 25 26 27 28 29 30 31 32 33 34 35 36 37 38 39 40 41 42 43 44 45 46 47 48 49 50
000
ASUS43 KFSD 221402
RWRFSD

WEATHER ROUNDUP FOR SE SOUTH DAKOTA/SW MINNESOTA/NW IOWA
NATIONAL WEATHER SERVICE SIOUX FALLS SD
900 AM CDT FRI SEP 22 2017

NOTE: "FAIR" INDICATES FEW OR NO CLOUDS BELOW 12,000 FEET WITH NO
SIGNIFICANT WEATHER AND OR OBSTRUCTIONS TO VISIBILITY.


SDZ038>040-050-052>070-221500-
SOUTHEAST SOUTH DAKOTA

CITY           SKY/WX    TMP DP  RH WIND       PRES   REMARKS
BROOKINGS      MOSUNNY   75  71  87 S12G22    29.73F
CHAMBERLAIN    SUNNY     79  71  75 SE12      29.61F
HURON          SUNNY     76  71  85 SE14G24   29.64R
MADISON        FAIR      73  73 100 S15       29.72F
MITCHELL       SUNNY     79  71  76 S10       29.66R
SIOUX FALLS    MOSUNNY   78  72  81 S18G30    29.73S
WINNER         FAIR      65  55  70 W12       29.64R
YANKTON        MOSUNNY   77  70  79 S16G24    29.70S
$$

MNZ071-072-080-081-089-090-097-098-221500-
SOUTHWEST MINNESOTA

CITY           SKY/WX    TMP DP  RH WIND       PRES   REMARKS
FAIRMONT       MOSUNNY   76  71  85 S16       29.84R
JACKSON        SUNNY     75  70  83 S15       29.83S
LUVERNE        SUNNY     75  68  78 S10G17    29.77S
MARSHALL       MOSUNNY   79  72  79 S22G32    29.72F
MONTEVIDEO     SUNNY     75  75 100 SE7       29.76R FOG
PIPESTONE      SUNNY     75  72  88 S16G23    29.76S
REDWOOD FALLS  CLOUDY    76  71  85 S12       29.76F
TRACY          SUNNY     76  72  87 S15G21    29.76S
WINDOM         SUNNY     79  70  73 S12G20    29.81R
WORTHINGTON    MOSUNNY   76  70  82 S16G22    29.80S
$$

IAZ001>003-012>014-020>022-031-032-NEZ013-014-SDZ071-221500-
NORTHWEST IOWA

CITY           SKY/WX    TMP DP  RH WIND       PRES   REMARKS
CHEROKEE       SUNNY     77  72  83 S15G22    29.82S
DENISON        SUNNY     77  70  78 S16G24    29.86S
ESTHERVILLE    SUNNY     74  72  93 S14       29.83R
LE MARS        SUNNY     77  70  78 S20G26    29.77S
ORANGE CITY    SUNNY     79  73  83 S18G25    29.79S
SHELDON        SUNNY     77  70  78 S14       29.78S
SIOUX CITY     SUNNY     76  71  85 S10       29.78S
SPENCER        SUNNY     78  70  76 S13G24    29.82S
STORM LAKE     SUNNY     79  70  73 S20G30    29.84R
$$

ABBREVIATIONS USED IN REMARKS
   TC - TEMPERATURE IN CELSIUS
  WCI - WIND CHILL INDEX
   HX - HEAT INDEX
  VSB - VISIBILITY




USA.gov is the U.S. government's official web portal to all federal, state and local government web resources and services.